Volver al catálogo

STARLINK-36171

ActivoComunicacionesVLEO
NORAD 67027·PAYLOAD·🇺🇸 United States

Lanzado Dec 10, 2025 desde Vandenberg Space Force Base

Loading…

Próximos Pases (próximas 24 horas)

TLE

ActualizadoSource: CelesTrak SupGP

Época: Sep 15, 2026, 03:51 UTC

1 67027C 25293AA  26258.16090278  .00049656  00000+0  41602-2 0  2581
2 67027  70.0021 336.5800 0003642 267.2683  53.2162 14.98315336    11

Sigue STARLINK-36171 en tiempo real con AllMySat

Download on the App Store